Historyczne dane pomiarowe

Dodano dane terminowe – wersja testowa.

Dane z okresu 1951-2019

Wersja bazy: 1.34 [2019-03-16, lista zmian], aktualizacja planowana na 2019-04-15

Dane meteo z obszaru Polski uzyskane na podstawie danych udostępnionych przez Instytut Meteorologii i Gospodarki Wodnej – Państwowy Instytut Badawczy.

 

Wybierz Datę:    

       

TemperaturaWilgotnośćWiatrCiśnienieOpadyŚniegCzas trwania zjawisk
 Stacja t tx tn tng RH VA  wxwx mslp ppp RRR   cm mm wxwxwxwxwxwxwx
2019-10-31 -2.5 4.1 -7.0 -8.4 78.0 3.9 0.9 0.8 0.0 0.0- 924.9 0.0 0.0 0.0- 0.0 8.6----- 16.0-
2019-10-30 0.3 3.4 -2.5 -3.9 83.1 5.2 5.6 1.4 0.0 0.0- 925.7 0.0 0.0 0.0- 0.0 0.2----- 8.0-
2019-10-29 2.4 5.4 -1.5 -2.7 82.5 6.0 6.6 1.1 0.0 0.0- 921.0 0.0 0.0 0.0- 0.0 3.0 0.7- 0.2----
2019-10-28 5.6 11.4 2.7 2.1 89.9 8.2 7.5 1.1 0.0 0.0- 919.8 2.5 2.5 0.0- 0.0 0.0 6.9--- 4.7--
2019-10-27 11.4 20.5 4.1 1.9 62.5 7.8 0.5 1.5 0.0 0.0- 920.4 0.1 0.0 0.1- 0.0 9.0---- 15.0--
2019-10-26 9.7 19.4 3.5 0.6 75.1 8.7 2.3 1.0 0.0 0.0- 924.1 0.0 0.0 0.0- 0.0 8.9---- 14.0--
2019-10-25 10.4 19.9 3.9 1.0 65.3 8.0 1.9 1.3 0.0 0.0- 922.6 0.0 0.0 0.0- 0.0 8.6---- 14.0--
2019-10-24 12.5 25.0 4.8 1.8 61.5 7.9 1.1 1.6 0.0 0.0- 919.0 0.0 0.0 0.0- 0.0 9.2---- 13.0--
2019-10-23 11.8 20.6 5.9 3.1 79.5 10.7 4.0 0.9 0.0 0.0- 923.6 0.0 0.0 0.0- 0.0 9.2---- 16.0--
2019-10-22 12.0 20.3 6.6 3.5 83.3 11.5 3.9 1.1 0.0 0.0- 925.5 0.0 0.0 0.0- 0.0 9.2---- 16.0--
2019-10-21 12.3 20.9 6.6 3.6 78.0 10.9 4.9 1.4 0.0 0.0- 922.1 0.0 0.0 0.0- 0.0 9.0---- 14.0--
2019-10-20 11.4 19.4 4.9 1.6 74.9 9.7 1.4 2.0 0.0 0.0- 918.6 0.0 0.0 0.0- 0.0 8.9---- 11.0--
2019-10-19 9.9 16.4 3.7 0.7 76.4 9.0 4.9 1.6 0.0 0.0- 917.5 0.0 0.0 0.0- 0.0 7.2---- 11.0--
2019-10-18 10.1 17.8 3.8 1.3 72.9 8.6 4.1 1.4 0.0 0.0- 918.3 0.0 0.0 0.0- 0.0 8.8---- 10.0--
2019-10-17 8.7 17.5 1.7 -1.0 73.6 7.9 1.3 1.1 0.0 0.0- 920.6 0.0 0.0 0.0- 0.0 9.3---- 4.0 4.0-
2019-10-16 14.2 19.8 10.2 7.2 64.5 10.0 3.6 2.9 0.0 0.0- 916.6 0.0 0.0 0.0- 0.0 4.6 0.5------
2019-10-15 15.1 22.4 6.6 4.8 54.8 8.2 4.6 2.4 0.0 0.0- 917.3 0.0 0.0 0.0- 0.0 8.3---- 8.0--
2019-10-14 11.4 21.6 4.5 2.7 75.3 9.7 0.5 0.8 0.0 0.0- 922.3 0.0 0.0 0.0- 0.0 9.7---- 12.0--
2019-10-13 10.4 20.1 3.4 1.4 76.4 9.4 2.1 1.0 0.0 0.0- 922.7 0.0 0.0 0.0- 0.0 9.6---- 14.0--
2019-10-12 9.3 22.5 2.2 0.7 75.1 8.1 4.6 1.4 0.0 0.0- 921.0 0.0 0.0 0.0- 0.0 8.8---- 11.0--
2019-10-11 7.7 14.5 2.5 1.4 71.4 7.2 5.5 1.4 0.0 0.0- 921.9 0.0 0.0 0.0- 0.0 8.7---- 4.0--
2019-10-10 8.4 11.7 6.7 5.7 72.6 7.9 5.9 3.0 0.0 0.0- 915.7 1.1 1.1 0.0- 0.0 6.5 1.3------
2019-10-09 7.6 10.9 4.0 3.4 95.8 10.0 7.1 1.0 0.0 0.0- 913.7 3.7 0.8 2.9- 0.0 0.0 10.5------
2019-10-08 2.8 10.4 -3.8 -3.4 74.9 5.4 5.3 1.3 0.0 0.0- 917.1 3.4 1.2 2.2- 0.0 6.2 1.8---- 8.0-
2019-10-07 0.4 4.9 -2.0 -3.6 86.6 5.4 3.6 1.1 0.0 0.0- 918.4 0.0 0.0 0.0- 0.0 5.0--- 1.3- 13.5-
2019-10-06 2.1 5.1 0.7 0.2 93.0 6.6 7.6 1.1 0.0 0.0- 916.8 1.7 1.7 0.0- 0.0 0.0 5.5 0.9 1.1----
2019-10-05 5.1 7.1 3.7 3.7 93.5 8.2 8.0 1.1 0.0 0.0- 909.3 14.1 6.9 7.2- 0.0 0.0 19.9--- 0.7--
2019-10-04 5.5 7.9 3.7 3.3 77.9 7.0 7.0 0.9 0.0 0.0- 913.9 0.1 0.0 0.1- 0.0 2.8 0.9--- 6.0--
2019-10-03 5.8 10.5 3.2 3.5 80.0 7.3 7.5 1.5 0.0 0.0- 913.3 0.3 0.0 0.3- 0.0 2.7 7.2------
2019-10-02 13.5 18.8 8.3 6.6 75.4 11.4 6.0 2.3 0.0 0.0- 907.9 29.7 8.8 20.9- 0.0 4.0 9.1--- 2.0--
2019-10-01 11.2 19.2 4.2 3.1 71.3 8.9 1.3 1.3 0.0 0.0- 912.9 0.0 0.0 0.0- 0.0 9.6---- 7.0--
2019-09-30 13.5 18.0 9.3 7.2 64.3 9.8 5.8 3.8 0.0 0.0- 908.5 5.3 4.4 0.0- 0.0 2.9 4.3--- 2.1--
2019-09-29 12.0 17.9 7.5 5.9 69.4 9.5 5.3 1.4 0.0 0.0- 914.8 0.0 0.0 0.0- 0.0 5.9---- 6.0--
2019-09-28 11.3 17.2 8.3 7.0 82.3 10.9 6.1 1.4 0.0 0.0- 917.6 0.8 0.8 0.0- 0.0 3.1 2.6------
2019-09-27 11.9 17.5 5.8 4.4 82.3 11.3 5.4 1.1 0.0 0.0- 918.0 0.0 0.0 0.0- 0.0 5.4 0.4--- 5.0--
2019-09-26 11.3 15.5 7.9 6.5 84.1 11.2 6.5 1.3 0.0 0.0- 915.2 0.0 0.0 0.0- 0.0 3.8 0.9------
2019-09-25 11.7 15.4 9.5 8.3 91.1 12.5 7.5 0.8 0.0 0.0- 912.7 0.3 0.0 0.3- 0.0 0.3 4.0------
2019-09-24 10.0 17.9 2.9 0.9 85.4 10.4 4.1 0.9 0.0 0.0- 916.3 1.3 0.0 1.3- 0.0 9.2 0.6-- 0.5 11.7--
2019-09-23 9.2 13.5 5.5 5.1 90.3 10.5 6.3 0.6 0.0 0.0- 917.5 0.4 0.4 0.0- 0.0 0.0 1.8-- 2.3 13.0--
2019-09-22 9.4 17.8 2.8 0.9 82.4 9.5 0.1 1.0 0.0 0.0- 920.8 0.0 0.0 0.0- 0.0 9.7---- 13.0--
2019-09-21 8.0 14.8 1.7 0.8 74.5 7.7 2.8 1.3 0.0 0.0- 926.0 0.0 0.0 0.0- 0.0 10.0---- 14.0--
2019-09-20 5.7 9.5 2.6 1.5 77.9 7.0 6.8 1.3 0.0 0.0- 926.9 0.0 0.0 0.0- 0.0 3.1 0.3--- 5.0--
2019-09-19 5.4 9.1 1.9 1.7 80.5 7.1 6.8 1.5 0.0 0.0- 924.6 0.4 0.3 0.1- 0.0 3.6 5.5--- 0.2--
2019-09-18 5.5 10.6 3.7 3.2 76.6 6.9 6.0 1.9 0.0 0.0- 920.4 1.4 0.1 1.3- 0.0 2.0 1.1--- 6.0--
2019-09-17 11.3 14.9 8.6 8.9 79.8 10.6 6.3 2.3 0.0 0.0- 915.4 3.2 0.3 2.9- 0.0 5.3 7.7------
2019-09-16 14.6 20.5 9.4 7.7 71.6 11.6 6.8 1.5 0.0 0.0- 920.0 3.2 0.0 3.2- 0.0 7.4 3.7--- 10.0--
2019-09-15 10.9 19.9 2.5 2.2 66.4 7.9 3.6 1.0 0.0 0.0- 926.2 0.0 0.0 0.0- 0.0 10.6---- 11.0--
2019-09-14 10.7 15.4 8.3 7.8 77.9 10.0 5.1 1.5 0.0 0.0- 932.0 0.0 0.0 0.0- 0.0 7.3 1.9--- 6.1--
2019-09-13 14.1 19.7 7.7 6.0 76.8 12.0 3.6 1.6 0.0 0.0- 930.8 0.9 0.0 0.9- 0.0 8.9---- 11.0--
2019-09-12 13.5 20.5 7.6 6.1 77.6 11.7 2.4 1.3 0.0 0.0- 929.9 0.0 0.0 0.0- 0.0 8.4---- 12.0--
2019-09-11 12.0 19.9 5.2 3.6 80.1 10.9 4.4 1.0 0.0 0.0- 926.2 0.0 0.0 0.0- 0.0 10.2---- 15.0--
2019-09-10 10.6 17.2 4.7 3.7 81.6 10.1 5.5 1.1 0.0 0.0- 921.1 0.0 0.0 0.0- 0.0 9.8--- 0.4 7.0--
2019-09-09 12.7 19.1 8.7 8.7 87.4 12.8 6.8 1.4 0.0 0.0- 915.3 18.1 18.0 0.1- 0.0 1.0 10.5--- 0.7- 3.7
2019-09-08 14.3 19.7 11.4 10.9 81.5 13.0 5.4 1.3 0.0 0.0- 919.4 10.2 0.0 10.2- 0.0 6.6 4.8--- 3.0--
2019-09-07 12.6 17.2 9.3 8.3 89.9 13.1 7.4 0.9 0.0 0.0- 920.3 5.2 0.8 4.4- 0.0 0.7 2.8--- 8.0--
2019-09-06 12.8 16.2 11.3 10.4 82.1 12.0 7.3 1.1 0.0 0.0- 924.1 0.0 0.0 0.0- 0.0 2.0 4.4--- 0.3--
2019-09-05 13.7 20.5 6.2 4.8 75.4 11.4 2.1 1.1 0.0 0.0- 919.1 0.6 0.0 0.6- 0.0 9.9---- 12.0--
2019-09-04 11.3 18.0 5.1 3.7 75.6 9.6 2.9 1.1 0.0 0.0- 922.9 0.0 0.0 0.0- 0.0 9.7---- 13.0--
2019-09-03 9.6 12.8 8.9 9.0 91.1 10.9 6.4 0.6 0.0 0.0- 924.6 8.0 8.0 0.0- 0.0 0.4 11.7--- 4.0--
2019-09-02 15.3 19.1 12.7 12.6 89.5 15.5 6.8 0.9 0.0 0.0- 920.1 16.5 3.4 13.1- 0.0 1.7 9.2--- 6.0- 0.7
99.8 ms

 

Źródłem pochodzenia danych jest Instytut Meteorologii i Gospodarki Wodnej – Państwowy Instytut Badawczy. Dane Instytutu Meteorologii i Gospodarki Wodnej – Państwowego Instytutu Badawczego zostały przetworzone.

Dane źródłowe można odnaleźć na stronie https://dane.imgw.pl